Aérodrome :
LOGIN :

S'inscrire | Disclaimer

   EN    FR    IT 

 










Légende :    VFR   VFR Marginal   IFR   IFR Intensif   IFR Très Intensif
Visi : 
Plafond : 
>= 8 km
>= 3000ft
5 à 8 km
1000 à 3000 ft
1500m à 5 km
500 à 1000 ft
800 à 1500m
200 à 500 ft
< 800m
< 200 ft
Symboles :   Orages  Brouillard  Fortes neiges  Fortes précipitations  Vent > 20 kt
SIGMETs :   Divers  Orages  Givrage  Turbulence  Onde Orograph.  Cendres Volcan.







- Altitude de l'aérodrome : 7 ft
- Code IATA : XHE
- Voir les cartes d'approche


LFTH - Hyeres

DERNIER METAR :
  • 112300Z AUTO 31006KT CAVOK 08/04 Q1018 NOSIG

METARs EXPIRÉS :
  • 112230Z AUTO 31006KT CAVOK 08/04 Q1018 NOSIG
  • 112200Z AUTO 31007KT CAVOK 08/04 Q1018 NOSIG
  • 112130Z AUTO 31007KT CAVOK 08/04 Q1018 NOSIG
  • 112100Z AUTO 31005KT 9999 SCT038 BKN050 09/05 Q1018 NOSIG
  • 112030Z AUTO 32004KT 9999 SCT039 SCT047 09/05 Q1018 NOSIG

TAF TAF LFTH
Valide du 11 à 21h jusqu'au 12 à 21h UTC


112000Z 1121/1221 03005KT 9999 SCT020
TEMPO 1121/1201 BKN020
Pas de NOTAMs connus pour ce terrain.



MET'MAP, la Météo Aéronautique d'un coup d'oeil ! - Copyright ORBIFLY Décembre 2007 - Disclaimer

ORBIFLY MET'MAP TEAM :

Programmation & Développement : Alexandra Zaïnal
Conception & Développement : Baudouin d'Aumeries
Co-Programmation & Développement : Marc-Olivier Méhu
Soutien technique & logistique : Manuel Goepfert

Contact : metmap@orbifly.com




SOURCES & CREDITS :

   NOAA